ENRA

Details ICAO ENRA (MQN)
Name Mo i Rana Rossvoll
Region Norway
Timezone Europe/Oslo (UTC+2.0)
Plans Departing 14
Arriving 19
Stats Elevation 226 ft / 69 m (AMSL)
Location 66.363838° 14.301646°
Runways 1
Magnetic Variation 5.619° E
Sunrise 2018-05-22 00:51:02 UTC / 2018-05-22 02:51:02 Local
Sunset 2018-05-22 21:10:44 UTC / 2018-05-22 23:10:44 Local
Advertisement - Login to hide

Runways

ID Width Length Bearing (true) Bearing (mag) Surface Threshold Offset Overrun Length
14 98 ft / 30 m 2,759 ft / 841 m 138.49° 132.87° Asphalt 0 ft / 0 m 0 ft / 0 m
32 98 ft / 30 m 2,759 ft / 841 m 318.51° 312.89° Asphalt 0 ft / 0 m 0 ft / 0 m

Approach Navaids

Runway Type Ident Frequency Range Bearing (true) Bearing (mag) Slope Elevation
32 Localiser RA 111.30 MHz 50 nm / 93 km 80.51° 74.89° - 462 ft / 141 m (AMSL)
32 DME RA 111.30 MHz 50 nm / 93 km - - - 462 ft / 141 m (AMSL)

Map

Weather


0- 5 10 15 20 25 30 35+ Temperature / ° C

Clouds and Precipitation
Forecast for 2018-05-22 06:00 UTC. Updated an hour ago

Ground ~20,000 ft ~40,000 ft Winds

METAR

ENRA 220550Z VRB01KT 0500 FG VV003 07/07 Q1021

TAF

Not found
Warning: Do not use this data for real-world aviation or navigation. No guarantee of current accuracy is given.